Change the Weather History Date:

Thursday, November 1, 2012

  Actual Average Record
Temperature  
Mean Temperature 62 °F -  
Max Temperature 70 °F 70 °F 89 °F (1997)
Min Temperature 55 °F 44 °F 37 °F (2013)
Degree Days  
Heating Degree Days 2    
Growing Degree Days 12 (Base 50)    
Moisture  
Dew Point 52 °F    
Average Humidity 72    
Maximum Humidity 81    
Minimum Humidity 55    
Precipitation  
Precipitation 0.00 in - - ()
Sea Level Pressure  
Sea Level Pressure 29.99 in    
Wind  
Wind Speed 3 mph (SE)    
Max Wind Speed 9 mph    
Max Gust Speed -    
Visibility 9 miles    
Events      
Averages and records for this station are not official NWS values.
T = Trace of Precipitation, MM = Missing Value Source: NWS Daily Summary

Daily Weather History Graph

Daily Weather History Graph

Search for Another Location

Airport or City:

Trip Planner

Search our weather history database for the weather conditions in past years. The results will help you decide how hot, cold, wet, or windy it might be!

Date:

Astronomy

Nov. 01, 2012 Rise Set
Actual Time 7:08 AM PDT 5:57 PM PDT
Civil Twilight 6:42 AM PDT 6:22 PM PDT
Nautical Twilight 6:13 AM PDT 6:52 PM PDT
Astronomical Twilight 5:44 AM PDT 7:21 PM PDT
Moon 8:04 PM PDT (11/1) 9:38 AM PDT (11/1)
Length of Visible Light 11h 40m
Length of Day
10h 48m
Waning Gibbous, 92% of the Moon is Illuminated
Nov 1
Waning Gibbous
Nov 6
Last Quarter
Nov 13
New
Nov 20
First Quarter
Nov 28
Full

Hourly Weather History & Observations

Time (PDT) Temp. Dew Point Humidity Pressure Visibility Wind Dir Wind Speed Gust Speed Precip Events Conditions
12:54 AM 61.0 °F 54.0 °F 78% 30.01 in 10.0 mi Calm Calm - N/A   Overcast
1:54 AM 61.0 °F 54.0 °F 78% 30.01 in 10.0 mi Calm Calm - N/A   Overcast
2:54 AM 60.1 °F 54.0 °F 80% 30.00 in 10.0 mi ENE 5.8 mph - N/A   Overcast
3:54 AM 60.1 °F 54.0 °F 80% 29.99 in 8.0 mi Calm Calm - N/A   Overcast
4:54 AM 59.0 °F 53.1 °F 81% 29.99 in 10.0 mi Calm Calm - N/A   Overcast
5:54 AM 60.1 °F 53.1 °F 78% 30.01 in 9.0 mi Calm Calm - N/A   Overcast
6:22 AM 60.8 °F 53.6 °F 77% 30.01 in 9.0 mi ENE 4.6 mph - N/A   Overcast
6:54 AM 60.1 °F 53.1 °F 78% 30.01 in 5.0 mi NNE 3.5 mph - N/A   Overcast
7:54 AM 59.0 °F 52.0 °F 78% 30.02 in 7.0 mi NE 3.5 mph - N/A   Overcast
8:54 AM 60.1 °F 52.0 °F 75% 30.02 in 6.0 mi NE 5.8 mph - N/A   Mostly Cloudy
9:54 AM 60.1 °F 52.0 °F 75% 30.03 in 6.0 mi South 3.5 mph - N/A   Mostly Cloudy
10:26 AM 64.4 °F 51.8 °F 64% 30.03 in 8.0 mi SE 5.8 mph - N/A   Scattered Clouds
10:54 AM 64.0 °F 52.0 °F 65% 30.03 in 9.0 mi South 5.8 mph - N/A   Scattered Clouds
11:54 AM 68.0 °F 52.0 °F 56% 30.02 in 10.0 mi South 8.1 mph - N/A   Scattered Clouds
12:54 PM 69.1 °F 53.1 °F 57% 29.99 in 10.0 mi SSW 9.2 mph - N/A   Partly Cloudy
1:54 PM 70.0 °F 53.1 °F 55% 29.96 in 10.0 mi SSW 8.1 mph - N/A   Partly Cloudy
2:54 PM 69.1 °F 53.1 °F 57% 29.95 in 10.0 mi WSW 9.2 mph - N/A   Scattered Clouds
3:54 PM 66.9 °F 54.0 °F 63% 29.95 in 10.0 mi WSW 9.2 mph - N/A   Mostly Cloudy
4:54 PM 64.9 °F 54.0 °F 68% 29.96 in 10.0 mi WSW 5.8 mph - N/A   Mostly Cloudy
5:54 PM 63.0 °F 53.1 °F 70% 29.96 in 10.0 mi WSW 3.5 mph - N/A   Mostly Cloudy
6:54 PM 62.1 °F 53.1 °F 72% 29.97 in 10.0 mi Calm Calm - N/A   Mostly Cloudy
7:54 PM 57.9 °F 50.0 °F 75% 29.97 in 10.0 mi Calm Calm - N/A   Mostly Cloudy
8:54 PM 55.9 °F 48.9 °F 77% 29.99 in 10.0 mi Calm Calm - N/A   Mostly Cloudy
9:17 PM 57.2 °F 50.0 °F 77% 29.99 in 10.0 mi Calm Calm - N/A   Mostly Cloudy
9:54 PM 57.0 °F 50.0 °F 77% 29.99 in 10.0 mi NE 4.6 mph - N/A   Overcast
10:54 PM 57.0 °F 50.0 °F 77% 30.00 in 10.0 mi NE 4.6 mph - N/A   Overcast
11:54 PM 57.9 °F 50.0 °F 75% 30.00 in 10.0 mi NNE 3.5 mph - N/A   Overcast